Time,TemperatureF,DewpointF,PressureIn,WindDirection,WindDirectionDegrees,WindSpeedMPH,WindSpeedGustMPH,Humidity,HourlyPrecipIn,Conditions,Clouds,dailyrainin,SolarRadiationWatts/m^2,SoftwareType,DateUTC
2013-02-03 00:02:00,37.0,37.0,-100.00,West,259,3.0,9.0,99,0.00,,,0.36,0.000000,,2013-02-03 05:02:00,
2013-02-03 00:32:00,37.0,37.0,-100.00,West,259,3.0,9.0,99,0.00,,,0.36,0.000000,,2013-02-03 05:32:00,
2013-02-03 00:42:00,37.0,37.0,-100.00,West,259,3.0,9.0,99,0.00,,,0.36,0.000000,,2013-02-03 05:42:00,
2013-02-03 00:52:00,37.0,37.0,-100.00,West,259,3.0,9.0,99,0.00,,,0.36,0.000000,,2013-02-03 05:52:00,
2013-02-03 01:02:00,36.0,35.0,-100.00,NW,314,4.0,8.0,97,0.00,,,0.36,0.000000,,2013-02-03 06:02:00,
2013-02-03 01:21:00,36.0,35.0,-100.00,NW,314,4.0,8.0,97,0.00,,,0.36,0.000000,,2013-02-03 06:21:00,
2013-02-03 01:32:00,36.0,35.0,-100.00,NW,314,4.0,8.0,97,0.00,,,0.36,0.000000,,2013-02-03 06:32:00,
2013-02-03 01:42:00,36.0,35.0,-100.00,NW,314,4.0,8.0,97,0.00,,,0.36,0.000000,,2013-02-03 06:42:00,
2013-02-03 01:52:00,36.0,35.0,-100.00,NW,314,4.0,8.0,97,0.00,,,0.36,0.000000,,2013-02-03 06:52:00,
2013-02-03 02:02:00,34.0,34.0,-100.00,NW,310,3.0,8.0,98,0.00,,,0.36,0.000000,,2013-02-03 07:02:00,
2013-02-03 02:32:00,34.0,34.0,-100.00,NW,310,3.0,8.0,98,0.00,,,0.36,0.000000,,2013-02-03 07:32:00,
2013-02-03 02:42:00,34.0,34.0,-100.00,NW,310,3.0,8.0,98,0.00,,,0.36,0.000000,,2013-02-03 07:42:00,
2013-02-03 02:52:00,34.0,34.0,-100.00,NW,310,3.0,8.0,98,0.00,,,0.36,0.000000,,2013-02-03 07:52:00,
2013-02-03 03:02:00,33.0,32.0,-100.00,WNW,296,3.0,9.0,98,0.00,,,0.36,0.000000,,2013-02-03 08:02:00,
2013-02-03 03:32:00,33.0,32.0,-100.00,WNW,296,3.0,9.0,98,0.00,,,0.36,0.000000,,2013-02-03 08:32:00,
2013-02-03 03:42:00,33.0,32.0,-100.00,WNW,296,3.0,9.0,98,0.00,,,0.36,0.000000,,2013-02-03 08:42:00,
2013-02-03 03:52:00,33.0,32.0,-100.00,WNW,296,3.0,9.0,98,0.00,,,0.36,0.000000,,2013-02-03 08:52:00,
2013-02-03 04:32:00,33.0,33.0,-100.00,WNW,286,3.0,7.0,99,0.00,,,0.36,0.000000,,2013-02-03 09:32:00,
2013-02-03 04:42:00,33.0,33.0,-100.00,WNW,286,3.0,7.0,99,0.00,,,0.36,0.000000,,2013-02-03 09:42:00,
2013-02-03 04:52:00,33.0,33.0,-100.00,WNW,286,3.0,7.0,99,0.00,,,0.36,0.000000,,2013-02-03 09:52:00,
2013-02-03 05:01:00,33.0,33.0,-100.00,WNW,286,3.0,7.0,99,0.00,,,0.36,0.000000,,2013-02-03 10:01:00,
2013-02-03 05:02:00,32.0,32.0,-100.00,WNW,290,3.0,9.0,99,0.00,,,0.36,0.000000,,2013-02-03 10:02:00,
2013-02-03 05:32:00,32.0,32.0,-100.00,WNW,290,3.0,9.0,99,0.00,,,0.36,0.000000,,2013-02-03 10:32:00,
2013-02-03 05:42:00,32.0,32.0,-100.00,WNW,290,3.0,9.0,99,0.00,,,0.36,0.000000,,2013-02-03 10:42:00,
2013-02-03 05:53:00,32.0,32.0,-100.00,WNW,290,3.0,9.0,99,0.00,,,0.36,0.000000,,2013-02-03 10:53:00,
2013-02-03 06:02:00,31.0,31.0,-100.00,WNW,299,3.0,6.0,98,0.00,,,0.36,0.000000,,2013-02-03 11:02:00,
2013-02-03 06:32:00,31.0,31.0,-100.00,WNW,299,3.0,6.0,98,0.00,,,0.36,0.000000,,2013-02-03 11:32:00,
2013-02-03 06:42:00,31.0,31.0,-100.00,WNW,299,3.0,6.0,98,0.00,,,0.36,0.000000,,2013-02-03 11:42:00,
2013-02-03 06:52:00,31.0,31.0,-100.00,WNW,299,3.0,6.0,98,0.00,,,0.36,0.000000,,2013-02-03 11:52:00,
2013-02-03 07:02:00,32.0,32.0,-100.00,West,263,4.0,11.0,99,0.00,,,0.36,0.000000,,2013-02-03 12:02:00,
2013-02-03 07:33:00,32.0,32.0,-100.00,West,263,4.0,11.0,99,0.00,,,0.36,0.000000,,2013-02-03 12:33:00,
2013-02-03 07:42:00,32.0,32.0,-100.00,West,263,4.0,11.0,99,0.00,,,0.36,0.000000,,2013-02-03 12:42:00,
2013-02-03 07:53:00,32.0,32.0,-100.00,West,263,4.0,11.0,99,0.00,,,0.36,0.000000,,2013-02-03 12:53:00,
2013-02-03 08:02:00,33.0,32.0,-100.00,WNW,283,4.0,12.0,98,0.00,,,0.36,2.000000,,2013-02-03 13:02:00,
2013-02-03 08:32:00,33.0,32.0,-100.00,WNW,283,4.0,12.0,98,0.00,,,0.36,2.000000,,2013-02-03 13:32:00,
2013-02-03 08:42:00,33.0,32.0,-100.00,WNW,283,4.0,12.0,98,0.00,,,0.36,2.000000,,2013-02-03 13:42:00,
2013-02-03 08:52:00,33.0,32.0,-100.00,WNW,283,4.0,12.0,98,0.00,,,0.36,2.000000,,2013-02-03 13:52:00,
2013-02-03 09:02:00,34.0,33.0,-100.00,West,271,3.0,12.0,97,0.00,,,0.36,30.000000,,2013-02-03 14:02:00,
2013-02-03 09:32:00,34.0,33.0,-100.00,West,271,3.0,12.0,97,0.00,,,0.36,30.000000,,2013-02-03 14:32:00,
2013-02-03 09:43:00,34.0,33.0,-100.00,West,271,3.0,12.0,97,0.00,,,0.36,30.000000,,2013-02-03 14:43:00,
2013-02-03 09:52:00,34.0,33.0,-100.00,West,271,3.0,12.0,97,0.00,,,0.36,30.000000,,2013-02-03 14:52:00,
2013-02-03 10:02:00,36.0,34.0,-100.00,West,260,3.0,10.0,93,0.00,,,0.36,89.000000,,2013-02-03 15:02:00,
2013-02-03 10:33:00,36.0,34.0,-100.00,West,260,3.0,10.0,93,0.00,,,0.36,89.000000,,2013-02-03 15:33:00,
2013-02-03 10:42:00,36.0,34.0,-100.00,West,260,3.0,10.0,93,0.00,,,0.36,89.000000,,2013-02-03 15:42:00,
2013-02-03 10:52:00,36.0,34.0,-100.00,West,260,3.0,10.0,93,0.00,,,0.36,89.000000,,2013-02-03 15:52:00,
2013-02-03 11:02:00,42.0,37.0,-100.00,WNW,301,4.0,9.0,81,0.00,,,0.36,250.000000,,2013-02-03 16:02:00,
2013-02-03 11:33:00,42.0,37.0,-100.00,WNW,301,4.0,9.0,81,0.00,,,0.36,250.000000,,2013-02-03 16:33:00,
2013-02-03 11:42:00,42.0,37.0,-100.00,WNW,301,4.0,9.0,81,0.00,,,0.36,250.000000,,2013-02-03 16:42:00,
2013-02-03 11:52:00,42.0,37.0,-100.00,WNW,301,4.0,9.0,81,0.00,,,0.36,250.000000,,2013-02-03 16:52:00,
2013-02-03 12:02:00,48.0,38.0,-100.00,NW,325,7.0,14.0,68,0.00,,,0.36,478.000000,,2013-02-03 17:02:00,
2013-02-03 12:32:00,48.0,38.0,-100.00,NW,325,7.0,14.0,68,0.00,,,0.36,478.000000,,2013-02-03 17:32:00,
2013-02-03 12:42:00,48.0,38.0,-100.00,NW,325,7.0,14.0,68,0.00,,,0.36,478.000000,,2013-02-03 17:42:00,
2013-02-03 12:52:00,48.0,38.0,-100.00,NW,325,7.0,14.0,68,0.00,,,0.36,478.000000,,2013-02-03 17:52:00,
2013-02-03 13:02:00,49.0,31.0,-100.00,NW,311,7.0,15.0,50,0.00,,,0.36,689.000000,,2013-02-03 18:02:00,
2013-02-03 13:23:00,49.0,31.0,-100.00,NW,311,7.0,15.0,50,0.00,,,0.36,689.000000,,2013-02-03 18:23:00,
2013-02-03 13:33:00,49.0,31.0,-100.00,NW,311,7.0,15.0,50,0.00,,,0.36,689.000000,,2013-02-03 18:33:00,
2013-02-03 13:42:00,49.0,31.0,-100.00,NW,311,7.0,15.0,50,0.00,,,0.36,689.000000,,2013-02-03 18:42:00,
2013-02-03 13:52:00,49.0,31.0,-100.00,NW,311,7.0,15.0,50,0.00,,,0.36,689.000000,,2013-02-03 18:52:00,
2013-02-03 14:02:00,50.0,32.0,-100.00,NW,321,8.0,17.0,50,0.00,,,0.36,678.000000,,2013-02-03 19:02:00,
2013-02-03 14:33:00,50.0,32.0,-100.00,NW,321,8.0,17.0,50,0.00,,,0.36,678.000000,,2013-02-03 19:33:00,
2013-02-03 14:42:00,50.0,32.0,-100.00,NW,321,8.0,17.0,50,0.00,,,0.36,678.000000,,2013-02-03 19:42:00,
2013-02-03 14:52:00,50.0,32.0,-100.00,NW,321,8.0,17.0,50,0.00,,,0.36,678.000000,,2013-02-03 19:52:00,
2013-02-03 15:02:00,52.0,33.0,-100.00,NW,321,7.0,16.0,48,0.00,,,0.36,595.000000,,2013-02-03 20:02:00,
2013-02-03 15:33:00,52.0,33.0,-100.00,NW,321,7.0,16.0,48,0.00,,,0.36,595.000000,,2013-02-03 20:33:00,
2013-02-03 15:42:00,52.0,33.0,-100.00,NW,321,7.0,16.0,48,0.00,,,0.36,595.000000,,2013-02-03 20:42:00,
2013-02-03 15:52:00,52.0,33.0,-100.00,NW,321,7.0,16.0,48,0.00,,,0.36,595.000000,,2013-02-03 20:52:00,
2013-02-03 16:02:00,51.0,29.0,-100.00,NNW,328,7.0,15.0,42,0.00,,,0.36,440.000000,,2013-02-03 21:02:00,
2013-02-03 16:33:00,51.0,29.0,-100.00,NNW,328,7.0,15.0,42,0.00,,,0.36,440.000000,,2013-02-03 21:33:00,
2013-02-03 16:42:00,51.0,29.0,-100.00,NNW,328,7.0,15.0,42,0.00,,,0.36,440.000000,,2013-02-03 21:42:00,
2013-02-03 16:52:00,51.0,29.0,-100.00,NNW,328,7.0,15.0,42,0.00,,,0.36,440.000000,,2013-02-03 21:52:00,
2013-02-03 17:32:00,49.0,23.0,-100.00,NW,320,8.0,17.0,36,0.00,,,0.36,145.000000,,2013-02-03 22:32:00,
2013-02-03 17:42:00,49.0,23.0,-100.00,NW,320,8.0,17.0,36,0.00,,,0.36,145.000000,,2013-02-03 22:42:00,
2013-02-03 17:52:00,49.0,23.0,-100.00,NW,320,8.0,17.0,36,0.00,,,0.36,145.000000,,2013-02-03 22:52:00,
2013-02-03 18:01:00,49.0,23.0,-100.00,NW,320,8.0,17.0,36,0.00,,,0.36,145.000000,,2013-02-03 23:01:00,
2013-02-03 18:02:00,47.0,25.0,-100.00,NW,320,7.0,12.0,41,0.00,,,0.18,15.000000,,2013-02-03 23:02:00,
2013-02-03 18:33:00,47.0,25.0,-100.00,NW,320,7.0,12.0,41,0.00,,,0.18,15.000000,,2013-02-03 23:33:00,
2013-02-03 18:42:00,47.0,25.0,-100.00,NW,320,7.0,12.0,41,0.00,,,0.18,15.000000,,2013-02-03 23:42:00,
2013-02-03 18:52:00,47.0,25.0,-100.00,NW,320,7.0,12.0,41,0.00,,,0.18,15.000000,,2013-02-03 23:52:00,
2013-02-03 19:32:00,44.0,25.0,-100.00,NW,325,4.0,16.0,46,0.00,,,0.04,1.000000,,2013-02-04 00:32:00,
2013-02-03 19:42:00,44.0,25.0,-100.00,NW,325,4.0,16.0,46,0.00,,,0.04,1.000000,,2013-02-04 00:42:00,
2013-02-03 19:52:00,44.0,25.0,-100.00,NW,325,4.0,16.0,46,0.00,,,0.04,1.000000,,2013-02-04 00:52:00,
2013-02-03 20:01:00,44.0,25.0,-100.00,NW,325,4.0,16.0,46,0.00,,,0.04,1.000000,,2013-02-04 01:01:00,
2013-02-03 20:02:00,43.0,24.0,-100.00,NW,326,7.0,9.0,47,0.00,,,0.01,0.000000,,2013-02-04 01:02:00,
2013-02-03 20:22:00,43.0,24.0,-100.00,NW,326,7.0,9.0,47,0.00,,,0.01,0.000000,,2013-02-04 01:22:00,
2013-02-03 20:32:00,43.0,24.0,-100.00,NW,326,7.0,9.0,47,0.00,,,0.01,0.000000,,2013-02-04 01:32:00,
2013-02-03 20:42:00,43.0,24.0,-100.00,NW,326,7.0,9.0,47,0.00,,,0.01,0.000000,,2013-02-04 01:42:00,
2013-02-03 20:52:00,43.0,24.0,-100.00,NW,326,7.0,9.0,47,0.00,,,0.01,0.000000,,2013-02-04 01:52:00,
2013-02-03 21:02:00,42.0,26.0,-100.00,NW,326,4.0,8.0,53,0.00,,,0.01,0.000000,,2013-02-04 02:02:00,
2013-02-03 21:22:00,42.0,26.0,-100.00,NW,326,4.0,8.0,53,0.00,,,0.01,0.000000,,2013-02-04 02:22:00,
2013-02-03 21:32:00,42.0,26.0,-100.00,NW,326,4.0,8.0,53,0.00,,,0.01,0.000000,,2013-02-04 02:32:00,
2013-02-03 21:42:00,42.0,26.0,-100.00,NW,326,4.0,8.0,53,0.00,,,0.01,0.000000,,2013-02-04 02:42:00,
2013-02-03 21:52:00,42.0,26.0,-100.00,NW,326,4.0,8.0,53,0.00,,,0.01,0.000000,,2013-02-04 02:52:00,
2013-02-03 22:32:00,39.0,26.0,-100.00,NW,318,3.0,5.0,59,0.00,,,0.00,0.000000,,2013-02-04 03:32:00,
2013-02-03 22:42:00,39.0,26.0,-100.00,NW,318,3.0,5.0,59,0.00,,,0.00,0.000000,,2013-02-04 03:42:00,
2013-02-03 22:52:00,39.0,26.0,-100.00,NW,318,3.0,5.0,59,0.00,,,0.00,0.000000,,2013-02-04 03:52:00,
2013-02-03 23:01:00,39.0,26.0,-100.00,NW,318,3.0,5.0,59,0.00,,,0.00,0.000000,,2013-02-04 04:01:00,
2013-02-03 23:02:00,37.0,26.0,-100.00,NW,316,3.0,5.0,65,0.00,,,0.00,0.000000,,2013-02-04 04:02:00,
2013-02-03 23:32:00,37.0,26.0,-100.00,NW,316,3.0,5.0,65,0.00,,,0.00,0.000000,,2013-02-04 04:32:00,
2013-02-03 23:42:00,37.0,26.0,-100.00,NW,316,3.0,5.0,65,0.00,,,0.00,0.000000,,2013-02-04 04:42:00,
2013-02-03 23:52:00,37.0,26.0,-100.00,NW,316,3.0,5.0,65,0.00,,,0.00,0.000000,,2013-02-04 04:52:00,